Regional Weather Roundup
Issued by NWS

Home | Current Version | Previous Version | Graphics & Text | Print | Product List | Glossary On
Versions: 1 2 3 4 5 6 7 8 9 10 11 12 13 14 15 16 17 18 19 20 21 22 23 24 25 26 27 28 29 30 31 32 33 34 35 36 37 38 39 40 41 42 43 44 45 46 47 48 49
000
ASUS45 KBOU 180207
RWRCO

WEATHER ROUNDUP FOR COLORADO
NATIONAL WEATHER SERVICE DENVER/BOULDER CO
800 PM MDT WED SEP 17 2014

NOTE: "FAIR" INDICATES FEW OR NO CLOUDS BELOW 12000 FEET WITH NO
SIGNIFICANT WEATHER AND/OR OBSTRUCTIONS TO VISIBILITY.

COZ001>005-013-030-031-180300-
...NORTHWEST COLORADO...

CITY           SKY/WX    TMP DP  RH WIND       PRES   REMARKS
CRAIG          PTCLDY    62  41  46 S3        30.09R
HAYDEN         CLEAR     68  36  30 SW7       30.12R
MEEKER         CLEAR     69  37  30 NE7       30.10R
MOUNT WERNER   NOT AVBL
STEAMBOAT SPGS PTCLDY    69  38  32 E3        30.15R
WALDEN         PTCLDY    59  37  44 S3        30.26R
$$

COZ006>008-011-180300-
...WEST CENTRAL VALLEYS...

CITY           SKY/WX    TMP DP  RH WIND       PRES   REMARKS
GRAND JUNCTION CLEAR     76  36  23 N8        29.95R
MONTROSE       PTCLDY    74  45  35 S7        30.06R
EAGLE          CLEAR     68  37  32 S3        30.12R
RIFLE          CLEAR     71  42  35 CALM      30.02R
DELTA          CLEAR     82  35  19 NW3       29.98R
NUCLA          CLEAR     70  41  35 S9        30.14R
$$

COZ017>023-064>068-180300-
...SOUTHWEST COLORADO...

CITY           SKY/WX    TMP DP  RH WIND       PRES   REMARKS
DURANGO        MOCLDY    58  51  78 VRB3      30.19R
CORTEZ         CLEAR     60  53  77 CALM      30.12S
PAGOSA SPRINGS MOCLDY    57  47  69 CALM      30.26R
TELLURIDE      NOT AVBL
WOLF CREEK PAS CLOUDY    45  36  70 CALM      30.52R
$$

COZ009-010-012-014-032>034-037-058>063-180300-
...CENTRAL COLORADO...

CITY           SKY/WX    TMP DP  RH WIND       PRES   REMARKS
ASPEN          PTCLDY    63  37  38 S9        30.20R
BUENA VISTA    MOCLDY    65  38  36 SW9       30.25R
COPPER MTN     PTCLDY    55  21  26 W10       30.55R
BERTHOUD PASS  FAIR      43  41  93 E24       30.60R
COTTONWOOD PAS MOCLDY    61  32  33 SE12G20   30.39R
GUNNISON       MOCLDY    66  36  32 N12       30.22R
KREMMLING      CLEAR     68  32  26 NW8       30.20R
LEADVILLE      MOCLDY    55  31  39 CALM      30.38R
MONARCH PASS   MOCLDY    46  32  57 E14       30.63R
SALIDA         MOCLDY    72  34  24 CALM      30.27R
SUNLIGHT       CLEAR     57  34  41 CALM      30.46S
WILKERSON PASS NOT AVBL
$$

COZ069>075-180300-
...SAN LUIS VALLEY/SANGRE DE CRISTO MOUNTAINS...

CITY           SKY/WX    TMP DP  RH WIND       PRES   REMARKS
ALAMOSA        CLOUDY    63  41  44 CALM      30.19R
LA VETA PASS   NOT AVBL
SAGUACHE       MOCLDY    63  37  39 E6        30.23S
$$

COZ035-036-038>040-180300-
...NORTHERN COLORADO FRONT RANGE...

CITY           SKY/WX    TMP DP  RH WIND       PRES   REMARKS
DENVER INTL AP MOCLDY    72  41  32 NE5       30.06R
DMNS CITY PARK   N/A     72  40  31 W5        30.07R
AURORA         MOCLDY    72  41  32 NE8       30.10R
FRONT RANGE AP MOCLDY    72  45  37 NE13      30.09R
ERIE MUNI ARPT MOCLDY    73  38  27 NW7       30.04R
BOULDER MUN AP MOCLDY    72  41  33 NW9       30.06R
CENTENNIAL     MOCLDY    74  40  29 N17G24    30.10R
BROOMFIELD     PTCLDY    75  39  27 VRB3      30.08R
FORT COLLINS   PTCLDY    66  50  55 W6        30.05R
LONGMONT       PTCLDY    67  46  46 NW6       30.06R
$$

COZ041-046-047-076>085-087-088-180300-
...PIKES PEAK/PALMER DIVIDE AND SOUTHERN FOOTHILLS...

CITY           SKY/WX    TMP DP  RH WIND       PRES   REMARKS
COLO. SPRINGS  MOCLDY    68  40  35 NW6       30.12R
A. F. ACADEMY  PTCLDY    64  42  44 N5        30.13R
ELLICOTT       NOT AVBL
FALCON         PTCLDY    62  44  52 W3        30.17R
FORT CARSON    PTCLDY    71  41  33 VRB6      30.08R
LIMON          PTCLDY    62  41  46 N10       30.05R
MONUMENT HILL  PTCLDY    59  37  44 S6        30.17R
TRINIDAD       PTCLDY    67  44  43 SW8       30.06R
$$

COZ042>045-048>051-090-091-180300-
...NORTHEAST COLORADO...

CITY           SKY/WX    TMP DP  RH WIND       PRES   REMARKS
GREELEY ARPT     N/A    N/A N/A N/A MISG        N/A
AKRON          PTCLDY    66  43  43 SW3       30.00R
BURLINGTON     MOCLDY    73  48  41 CALM      29.98R
WRAY           CLEAR     73  56  55 NE7       29.94R
STERLING       PTCLDY    72  50  46 NE7       29.95R
HOLYOKE        CLEAR     70  57  64 E7        29.95R
FORT MORGAN    PTCLDY    67  46  46 NE8       29.99S
$$

COZ086-089-092>099-180300-
...SOUTHEAST COLORADO...

CITY           SKY/WX    TMP DP  RH WIND       PRES   REMARKS
PUEBLO         PTCLDY    77  38  24 NE9       29.96R
LA JUNTA       PTCLDY    78  39  24 S6        29.94R
LAMAR          MOCLDY    76  45  33 SW7       29.90R
SPRINGFIELD      N/A     65  58  78 SW5       29.99R
$$



USA.gov is the U.S. government's official web portal to all federal, state and local government web resources and services.